This demonstration page uses our WeatherBlox Daily Observations layout. Learn more.

Hourly Observations for December 6, 2017

Temp ( °F °C ) Dew Point ( °F °C ) Humidity (%) Winds ( mph kmh ) Pressure ( in mb ) Visibility ( mi km ) Precip ( " mm )
12:15 am 00:15 Clear 34 1.1 22 -5.3 63 63 NW 12 19 30.3 1026 10 16.09344 0 0
12:35 am 00:35 Clear 34 1.3 23 -5 63 63 NW 14 22 30.27 1025 10 16.09344 0 0
12:55 am 00:55 Clear 34 1 23 -5 65 65 NW 9 15 30.3 1026 10 16.09344 0 0
1:15 am 01:15 Clear 30 -1 22 -5.8 70 70 NW 7 11 30.3 1026 10 16.09344 0 0
1:35 am 01:35 Clear 30 -1.2 22 -5.6 72 72 WNW 6 9 30.3 1026 10 16.09344 0 0
1:55 am 01:55 Clear 29 -1.4 21 -6.2 70 70 WNW 8 13 30.3 1026 10 16.09344 0 0
2:15 am 02:15 Clear 27 -2.6 20 -6.9 73 73 W 8 13 30.36 1028 10 16.09344 0 0
2:35 am 02:35 Clear 29 -1.8 20 -6.4 71 71 WNW 8 13 30.36 1028 10 16.09344 0 0
2:55 am 02:55 Partly Cloudy 28 -2 21 -6.3 73 73 WNW 7 11 30.36 1028 10 16.09344 0 0
3:15 am 03:15 Partly Cloudy 28 -2 21 -6.2 73 73 WNW 7 11 30.36 1028 10 16.09344 0 0
3:35 am 03:35 Clear 29 -1.6 21 -6.1 72 72 WNW 8 13 30.36 1028 10 16.09344 0 0
3:55 am 03:55 Clear 30 -1.1 22 -5.7 71 71 WNW 8 13 30.33 1027 10 16.09344 0 0
4:15 am 04:15 Partly Cloudy 29 -1.7 22 -5.7 74 74 WNW 8 13 30.36 1028 10 16.09344 0 0
4:35 am 04:35 Partly Cloudy 28 -2 21 -6 74 74 W 7 11 30.36 1028 10 16.09344 0 0
4:55 am 04:55 Clear 28 -2.1 21 -6.3 73 73 W 8 13 30.36 1028 10 16.09344 0 0
5:15 am 05:15 Clear 28 -2.1 20 -6.4 73 73 W 9 15 30.36 1028 10 16.09344 0 0
5:35 am 05:35 Clear 27 -2.6 21 -6.2 77 77 WNW 8 13 30.36 1028 10 16.09344 0 0
5:55 am 05:55 Clear 26 -3.1 21 -6.1 80 80 WNW 8 13 30.36 1028 10 16.09344 0 0
6:15 am 06:15 Clear 28 -2.2 23 -4.8 83 83 NW 15 24 30.36 1028 10 16.09344 0 0
6:35 am 06:35 Clear 31 -0.7 24 -4.3 77 77 NW 16 26 30.33 1027 10 16.09344 0 0
6:55 am 06:55 Clear 30 -1 24 -4.7 76 76 NW 14 22 30.36 1028 10 16.09344 0 0
7:15 am 07:15 Clear 30 -1.2 23 -5 76 76 NW 12 19 30.36 1028 10 16.09344 0 0
7:35 am 07:35 Mostly Cloudy 31 -0.4 24 -4.5 74 74 WNW 15 24 30.36 1028 10 16.09344 0 0
7:55 am 07:55 Mostly Cloudy 32 -0.2 23 -4.8 71 71 WNW 12 19 30.36 1028 10 16.09344 0 0
8:15 am 08:15 Partly Cloudy 31 -0.3 23 -5 71 71 WNW 10 17 30.36 1028 10 16.09344 0 0
8:35 am 08:35 Sunny 30 -0.9 23 -5.2 73 73 W 10 17 30.39 1029 10 16.09344 0 0
8:55 am 08:55 Sunny 32 0 23 -4.8 70 70 WNW 10 17 30.39 1029 10 16.09344 0 0
9:15 am 09:15 Sunny 34 1.2 24 -4.6 66 66 NW 16 26 30.39 1029 10 16.09344 0 0
9:35 am 09:35 Partly Cloudy 36 2.1 24 -4.6 62 62 NW 15 24 30.39 1029 10 16.09344 0 0
9:55 am 09:55 Partly Cloudy 37 2.8 24 -4.4 59 59 WNW 15 24 30.36 1028 10 16.09344 0 0
10:15 am 10:15 Sunny 38 3.3 23 -4.9 55 55 NW 21 33 30.36 1028 10 16.09344 0 0
10:35 am 10:35 Sunny 39 3.8 23 -5.1 53 53 NW 23 37 30.36 1028 10 16.09344 0 0
10:55 am 10:55 Sunny 39 3.9 23 -5.2 52 52 NW 20 31 30.36 1028 10 16.09344 0 0
11:15 am 11:15 Sunny 39 4.1 23 -4.9 52 52 NW 21 33 30.36 1028 10 16.09344 0 0
11:35 am 11:35 Partly Cloudy 39 4 24 -4.7 53 53 WNW 17 28 30.36 1028 10 16.09344 0 0
11:55 am 11:55 Mostly Cloudy 38 3.6 22 -5.5 52 52 NW 24 39 30.36 1028 10 16.09344 0 0
12:15 pm 12:15 Mostly Cloudy 40 4.7 23 -5 50 50 NW 25 41 30.36 1028 10 16.09344 0 0
12:35 pm 12:35 Cloudy 40 4.5 22 -5.5 49 49 NW 24 39 30.33 1027 10 16.09344 0 0
12:55 pm 12:55 Mostly Cloudy 40 4.6 23 -4.9 51 51 NW 25 41 30.33 1027 10 16.09344 0 0
1:15 pm 13:15 Mostly Cloudy 41 5.1 23 -5.1 48 48 NW 20 31 30.3 1026 10 16.09344 0 0
1:35 pm 13:35 Cloudy 40 4.4 23 -4.9 51 51 NW 20 31 30.33 1027 10 16.09344 0 0
1:55 pm 13:55 Cloudy 40 4.4 25 -4 55 55 NW 22 35 30.33 1027 10 16.09344 0 0
2:15 pm 14:15 Cloudy 40 4.6 23 -4.8 51 51 NW 22 35 30.33 1027 10 16.09344 0 0
2:35 pm 14:35 Cloudy 40 4.3 22 -5.4 50 50 NW 20 31 30.33 1027 10 16.09344 0 0
2:55 pm 14:55 Cloudy 40 4.5 22 -5.4 49 49 NW 18 30 30.33 1027 10 16.09344 0 0
3:15 pm 15:15 Cloudy 40 4.3 22 -5.3 50 50 NNW 16 26 30.33 1027 10 16.09344 0 0
3:35 pm 15:35 Cloudy 35 1.5 26 -3.1 72 72 N 24 39 30.39 1029 10 16.09344 0 0
3:55 pm 15:55 Cloudy 33 0.6 27 -2.7 79 79 N 20 31 30.39 1029 10 16.09344 0 0
4:15 pm 16:15 Cloudy 32 0.1 28 -2.5 83 83 N 15 24 30.42 1030 10 16.09344 0 0
4:35 pm 16:35 Cloudy 32 0 23 -4.8 70 70 NNW 18 30 30.42 1030 10 16.09344 0 0
4:55 pm 16:55 Cloudy 32 -0.1 24 -4.5 73 73 N 15 24 30.42 1030 10 16.09344 0 0
5:15 pm 17:15 Cloudy 31 -0.8 22 -5.8 69 69 N 14 22 30.48 1032 10 16.09344 0 0
5:35 pm 17:35 Cloudy 30 -1.2 22 -5.5 73 73 N 10 17 30.48 1032 10 16.09344 0 0
5:55 pm 17:55 Cloudy 29 -1.7 20 -6.6 70 70 NNW 16 26 30.5 1033 10 16.09344 0 0
6:15 pm 18:15 Cloudy 28 -2.5 18 -7.7 68 68 NNW 17 28 30.5 1033 10 16.09344 0 0
6:35 pm 18:35 Cloudy 27 -3 18 -7.7 70 70 N 16 26 30.5 1033 10 16.09344 0 0
6:55 pm 18:55 Cloudy 25 -4.1 17 -8.6 71 71 N 15 24 30.56 1035 10 16.09344 0 0
7:15 pm 19:15 Cloudy 24 -4.5 15 -9.2 70 70 N 15 24 30.56 1035 10 16.09344 0 0
7:35 pm 19:35 Partly Cloudy 23 -5 14 -10 68 68 N 14 22 30.59 1036 10 16.09344 0 0
7:55 pm 19:55 Clear 22 -5.8 14 -10.2 71 71 NW 7 11 30.62 1037 10 16.09344 0 0
8:15 pm 20:15 Clear 20 -6.5 13 -10.6 73 73 NNW 10 17 30.62 1037 10 16.09344 0 0
8:35 pm 20:35 Clear 20 -6.5 12 -10.9 71 71 NNW 10 17 30.62 1037 10 16.09344 0 0
8:55 pm 20:55 Clear 20 -6.7 12 -11 72 72 NNW 9 15 30.62 1037 10 16.09344 0 0
9:15 pm 21:15 Clear 18 -7.6 12 -11.2 76 76 NNW 9 15 30.62 1037 10 16.09344 0 0
9:35 pm 21:35 Clear 18 -7.6 12 -11.2 76 76 NNW 13 20 30.62 1037 10 16.09344 0 0
9:55 pm 21:55 Clear 18 -7.6 12 -11.2 76 76 NNW 13 20 30.65 1038 10 16.09344 0 0
10:15 pm 22:15 Clear 17 -8.3 11 -11.5 78 78 NNW 9 15 30.68 1039 10 16.09344 0 0
10:35 pm 22:35 Clear 17 -8.6 11 -11.7 79 79 NW 9 15 30.68 1039 10 16.09344 0 0
10:55 pm 22:55 Clear 15 -9.5 10 -12 82 82 NW 9 15 30.68 1039 10 16.09344 0 0
11:15 pm 23:15 Clear 15 -9.5 10 -12 82 82 NW 7 11 30.68 1039 10 16.09344 0 0
11:35 pm 23:35 Clear 15 -9.2 11 -11.7 82 82 NW 10 17 30.68 1039 10 16.09344 0 0
11:55 pm 23:55 Clear 14 -9.9 10 -12.3 83 83 NW 9 15 30.68 1039 10 16.09344 0 0

Powered by AerisWeather